28P/Neujmin 1 (2021)

Japanese version
Home page
Updated on May 13, 2024

---------------------------------------------------------------------

* Profile

* Pictures

* Orbital Elements

Epoch 2024 Mar. 31.0 TT = JDT 2460400.5
T 2021 Mar. 11.35325 TT                                 Rudenko
q   1.5837158            (2000.0)            P               Q
n   0.05341134     Peri.  347.47822     +0.89923479     +0.43357623
a   6.9830806      Node   346.37280     -0.37703929     +0.70065216
e   0.7732067      Incl.   14.30417     -0.22185169     +0.56665527
P  18.5
>From 978 observations 2017 Mar. 19-2024 Feb. 8, mean residual 0".3.

* Finding Charts

* Magnitudes Graph

        H = 12.2  G = 0.15

---------------------------------------------------------------------

The orbital elements are published on M.P.E.C. 2024-D33.
The charts are made with StellaNavigator Ver.10 (AstroArts).
The magnitudes graphs are made with Comet for Windows.

---------------------------------------------------------------------

Copyright(C) Seiichi Yoshida (comet@aerith.net). All rights reserved.